W4RLH Weather Reports


Display with metric or nautical units.
time (UTC)temp
F
wind
direction
speed
MPH
gust
MPH
rain 1hr
in
rain 24hr
in
rain mn
in
humidity
%
barometer
mb
20260510173049 78 0 0.0 2.0 0.00 0.00 0.00 51 1014.3
20260510171540 78 0 0.0 3.0 0.00 0.00 0.00 53 1014.5
20260510170047 80 0 0.0 4.0 0.00 0.00 0.00 49 1014.5
20260510164542 80 0 0.0 2.0 0.00 0.00 0.00 51 1014.5
20260510163043 79 81 0.0 2.0 0.00 0.00 0.00 51 1014.6
20260510161540 77 144 0.0 3.0 0.00 0.00 0.00 56 1014.7
20260510160046 77 0 0.0 0.0 0.00 0.00 0.00 54 1014.8
20260510154552 77 0 0.0 4.0 0.00 0.00 0.00 54 1015.0
20260510153041 75 103 0.0 3.0 0.00 0.00 0.00 66 1015.2
20260510151541 73 97 0.0 3.0 0.00 0.00 0.00 64 1015.0
20260510150040 71 0 0.0 4.0 0.00 0.00 0.00 72 1014.9
20260510144546 70 0 0.0 4.0 0.00 0.00 0.00 74 1015.0
20260510143042 69 360 0.0 4.0 0.00 0.00 0.00 77 1014.9
20260510141539 67 0 0.0 2.0 0.00 0.00 0.00 76 1014.9
20260510140044 67 360 0.0 1.0 0.00 0.00 0.00 61 1014.9
20260510134549 66 360 0.0 2.0 0.00 0.00 0.00 19 1014.9
20260510133043 65 0 0.0 1.0 0.00 0.00 0.00 4 1014.7
20260510131543 64 0 0.0 0.0 0.00 0.00 0.00 3 1014.7
20260510130041 64 0 0.0 1.0 0.00 0.00 0.00 2 1014.5
20260510124542 63 0 0.0 1.0 0.00 0.00 0.00 3 1014.4
20260510123044 62 0 0.0 0.0 0.00 0.00 0.00 4 1014.3
20260510121541 61 222 0.0 1.0 0.00 0.00 0.00 6 1014.2
20260510120041 60 0 0.0 0.0 0.00 0.00 0.00 7 1014.2
20260510114541 60 0 0.0 0.0 0.00 0.00 0.00 9 1014.0
20260510113039 60 0 0.0 0.0 0.00 0.00 0.00 10 1013.6
20260510111544 60 0 0.0 0.0 0.00 0.00 0.00 9 1013.4
20260510110045 60 0 0.0 0.0 0.00 0.00 0.00 10 1013.4
20260510104543 60 0 0.0 0.0 0.00 0.00 0.00 10 1013.1
20260510103041 60 0 0.0 0.0 0.00 0.00 0.00 9 1012.9
20260510101540 60 0 0.0 0.0 0.00 0.00 0.00 10 1012.7
20260510100045 59 0 0.0 0.0 0.00 0.00 0.00 11 1012.5
20260510094557 59 0 0.0 0.0 0.00 0.00 0.00 12 1012.5
20260510093056 59 0 0.0 0.0 0.00 0.00 0.00 12 1012.3
20260510091548 60 0 0.0 0.0 0.00 0.00 0.00 12 1012.0
20260510090042 60 0 0.0 0.0 0.00 0.00 0.00 11 1011.8
20260510084540 60 0 0.0 0.0 0.00 0.00 0.00 10 1011.5
20260510083042 60 0 0.0 0.0 0.00 0.00 0.00 13 1011.7
20260510081543 60 0 0.0 0.0 0.00 0.00 0.00 13 1011.7
20260510080044 60 0 0.0 0.0 0.00 0.00 0.00 12 1011.5
20260510074544 60 0 0.0 0.0 0.00 0.00 0.00 13 1011.5
20260510073046 60 0 0.0 0.0 0.00 0.00 0.00 13 1011.5
20260510071549 60 0 0.0 0.0 0.00 0.00 0.00 13 1011.3
20260510070038 60 0 0.0 0.0 0.00 0.00 0.00 15 1011.4
20260510064537 60 0 0.0 0.0 0.00 0.00 0.00 14 1011.5
20260510063044 61 0 0.0 0.0 0.00 0.00 0.00 15 1011.4
20260510061543 61 0 0.0 0.0 0.00 0.00 0.00 16 1011.2
20260510060042 61 0 0.0 0.0 0.00 0.00 0.00 16 1011.5
20260510054539 61 0 0.0 0.0 0.00 0.00 0.00 16 1011.6
20260510053053 61 0 0.0 0.0 0.00 0.00 0.00 17 1011.7
20260510051549 61 0 0.0 0.0 0.00 0.00 0.00 17 1012.0
20260510050046 61 0 0.0 0.0 0.00 0.00 0.00 18 1011.9
20260510044542 61 0 0.0 0.0 0.00 0.00 0.00 19 1012.0
20260510043048 61 0 0.0 0.0 0.00 0.00 0.00 19 1012.0
20260510041539 62 0 0.0 0.0 0.00 0.00 0.00 19 1011.9
20260510040049 62 0 0.0 0.0 0.00 0.00 0.00 19 1011.8
20260510034544 62 0 0.0 0.0 0.00 0.00 0.00 20 1011.7
20260510033043 62 0 0.0 0.0 0.00 0.00 0.00 20 1011.7
20260510031547 62 0 0.0 0.0 0.00 0.00 0.00 21 1011.5
20260510030041 62 0 0.0 0.0 0.00 0.00 0.00 25 1011.5
20260510024542 63 0 0.0 0.0 0.00 0.00 0.00 24 1011.6
20260510023046 63 0 0.0 0.0 0.00 0.00 0.00 27 1011.4
20260510021549 63 0 0.0 0.0 0.00 0.00 0.00 28 1011.4
20260510020041 64 0 0.0 0.0 0.00 0.00 0.00 30 1011.2
20260510014544 64 0 0.0 0.0 0.00 0.00 0.00 34 1011.3
20260510013047 64 0 0.0 0.0 0.00 0.00 0.00 37 1010.8
20260510011543 65 0 0.0 0.0 0.00 0.00 0.00 42 1010.6
20260510010040 65 0 0.0 0.0 0.00 0.00 0.00 47 1010.4
20260510004541 65 0 0.0 0.0 0.00 0.00 0.00 53 1010.3
20260510003044 66 0 0.0 0.0 0.00 0.00 0.00 58 1010.2
20260510001544 67 0 0.0 0.0 0.00 0.00 0.00 62 1010.3
20260510000049 67 0 0.0 0.0 0.00 0.00 0.00 65 1010.2
20260509234541 68 0 0.0 0.0 0.00 0.00 0.00 68 1010.1
20260509233038 69 0 0.0 0.0 0.00 0.00 0.00 70 1009.8
20260509231545 69 0 0.0 0.0 0.00 0.00 0.00 72 1009.7
20260509230044 69 0 0.0 0.0 0.00 0.00 0.00 75 1009.6
20260509224541 69 0 0.0 1.0 0.00 0.00 0.00 76 1009.3
20260509223041 70 0 0.0 0.0 0.00 0.00 0.00 76 1009.5
20260509221543 70 0 0.0 0.0 0.00 0.00 0.00 77 1009.6
20260509220044 70 0 0.0 2.0 0.00 0.00 0.00 77 1009.6
20260509214552 70 236 0.0 3.0 0.00 0.00 0.00 76 1009.7
20260509213044 69 236 1.0 3.0 0.00 0.00 0.00 76 1009.4
20260509211540 70 0 0.0 1.0 0.00 0.00 0.00 77 1009.5
20260509210044 70 0 0.0 3.0 0.00 0.00 0.00 76 1009.6
20260509204542 69 237 1.0 4.0 0.00 0.00 0.00 76 1009.2
20260509203057 68 0 0.0 2.0 0.00 0.00 0.00 72 1009.3
20260509201545 68 0 0.0 1.0 0.00 0.00 0.00 74 1009.6
20260509200044 68 0 0.0 1.0 0.00 0.00 0.00 77 1009.8
20260509194541 69 0 0.0 1.0 0.00 0.00 0.00 77 1009.8
20260509193041 69 0 0.0 1.0 0.00 0.00 0.00 76 1009.8
20260509191554 69 0 0.0 3.0 0.00 0.00 0.00 74 1010.0
20260509190050 69 0 0.0 3.0 0.00 0.00 0.00 74 1009.8
20260509184549 69 0 0.0 2.0 0.00 0.00 0.00 75 1010.1
20260509183050 69 0 0.0 2.0 0.00 0.00 0.00 73 1010.3
20260509181539 68 0 1.0 3.0 0.00 0.00 0.00 72 1010.5
20260509180038 68 202 0.0 3.0 0.00 0.00 0.00 71 1010.9
20260509174559 68 202 1.0 4.0 0.00 0.00 0.00 72 1011.1